Temp
61 61 60 60 60 60 60 60 60 61 60 60 60 60 60 60 59 55 47 55 57 64 67 65 65 66 64 61 65 68 52 50 56 62 63 73 69 77 79 78 78 80 79 82 82
60 60 60 60 60 60 60 60 60 60 61 60 60 60 60 59 52 47 58 64 65 67 61 60 60 62 56 59 62 58 54 60 67 67 65 73 71 73 74 76 75 77 83 82 82
60 60 60 60 60 60 59 59 59 60 60 60 60 59 59 59 46 53 68 67 66 67 65 65 64 63 53 55 58 56 59 67 69 71 70 72 73 72 72 67 73 72 77 79 78
59 60 60 59 59 59 59 59 59 60 59 60 60 59 59 55 48 65 72 70 67 66 63 62 59 55 50 51 57 53 64 68 71 71 72 71 72 71 74 73 80 79 80 77 78
58 59 59 59 59 58 58 58 59 59 58 59 59 59 53 45 47 66 72 72 65 64 61 59 55 53 50 53 54 54 62 70 72 72 72 73 71 72 73 79 80 80 78 77 75
58 58 58 58 58 58 58 58 57 57 58 59 59 58 50 42 66 69 66 64 64 62 62 60 59 60 56 54 55 60 65 67 69 71 73 71 71 71 74 80 80 79 77 75 76
58 58 58 58 58 58 58 57 56 57 58 59 59 58 50 49 69 68 65 60 66 67 63 64 64 64 59 54 61 64 59 63 66 68 67 71 65 66 76 78 77 80 75 76 75
58 58 58 58 58 58 58 57 57 57 58 59 60 57 45 64 63 62 66 65 67 68 68 67 66 58 56 59 60 55 55 47 62 67 69 68 57 69 76 74 74 73 73 71 72
58 58 58 58 58 58 58 57 57 58 59 60 54 50 47 68 64 69 69 67 67 67 67 76 65 58 58 51 47 48 45 49 55 65 67 65 59 69 73 71 68 68 69 71 70
58 58 57 57 57 57 56 56 57 58 59 60 59 47 56 65 71 72 70 72 67 64 63 62 57 51 47 46 39 45 46 51 53 61 62 58 59 66 69 67 67 67 67 68 68
58 57 56 56 56 56 54 48 50 47 50 50 55 56 66 75 76 71 73 68 67 61 52 58 50 45 51 53 55 54 51 51 57 63 59 57 57 64 69 64 64 65 66 67 67
58 57 57 57 56 56 53 45 55 56 49 56 59 61 67 71 65 69 75 62 59 52 55 51 46 55 58 57 56 54 50 50 56 61 58 55 56 60 61 62 67 67 66 66 67
56 56 56 57 56 51 47 51 60 59 47 58 58 60 64 67 63 65 71 64 57 52 51 47 53 61 58 55 54 53 50 51 52 58 57 53 51 55 62 62 65 64 65 66 67
56 56 56 55 51 48 48 59 58 57 42 53 58 62 66 68 62 74 74 67 56 53 53 50 58 58 54 54 55 47 58 59 56 50 44 53 40 49 56 59 61 65 64 65 66
55 56 55 55 50 46 61 55 56 57 32 59 59 70 65 62 63 66 73 67 57 56 54 51 52 52 51 55 58 53 60 58 56 49 45 46 41 47 51 54 59 62 63 62 62
55 55 55 52 50 51 56 56 57 43 34 55 62 60 58 61 63 67 67 68 65 57 55 54 60 58 57 61 59 61 54 49 45 43 36 44 43 42 49 53 56 60 62 62 60
55 55 53 56 47 54 54 55 41 35 59 55 55 58 56 55 58 60 58 56 52 45 44 51 52 57 61 52 56 52 42 34 33 33 34 45 41 45 53 56 58 58 58 56 56
54 53 50 53 53 55 54 47 34 50 54 64 60 57 52 57 57 58 54 49 53 53 46 42 40 54 59 52 47 45 43 33 30 29 35 45 38 45 55 57 59 60 58 58 58
52 47 47 51 55 55 50 37 41 50 59 58 59 51 49 55 55 55 52 51 55 53 44 43 47 57 60 59 56 46 40 46 36 34 32 36 44 51 55 56 58 58 59 57 58
48 44 49 58 58 53 45 41 48 59 61 58 50 53 48 49 49 49 51 56 55 56 54 49 41 54 58 61 59 53 54 38 35 28 26 33 37 41 48 51 55 56 57 58 58
42 44 59 61 59 50 40 44 53 64 64 55 49 48 47 47 46 45 49 57 59 55 54 47 43 44 49 47 48 46 41 41 38 33 27 27 34 50 53 53 53 52 54 53 51
43 42 60 61 48 47 43 51 56 62 66 62 57 54 48 48 46 46 48 52 60 58 49 48 41 36 41 48 51 46 41 40 31 32 29 27 32 53 51 50 51 51 51 51 50
43 41 57 57 41 42 49 55 59 57 55 58 54 54 53 47 42 47 49 56 56 52 48 48 38 33 36 41 46 42 44 42 40 39 37 33 37 53 53 49 49 48 50 51 51
42 40 47 50 50 48 47 49 52 58 53 54 53 55 48 45 45 43 46 51 54 53 54 50 38 37 33 36 39 37 43 45 38 35 38 39 40 47 49 48 48 48 47 47 48
42 44 46 39 44 46 48 49 50 50 54 52 49 49 47 40 41 39 43 46 50 49 45 42 35 37 38 42 43 41 41 42 38 38 34 38 38 44 46 43 44 46 47 47 47
43 43 45 43 46 45 44 45 46 50 48 48 45 47 46 41 42 38 40 39 39 43 39 39 32 35 35 41 40 38 42 42 42 43 41 41 40 44 47 46 45 45 46 45 46
48 50 45 42 43 43 43 45 48 49 50 51 48 46 43 44 46 44 44 43 42 39 36 35 33 30 28 35 37 32 38 42 42 42 42 37 39 42 42 44 44 43 44 45 46
MSLP
1018.67 1018.35 1017.98 1017.54 1017.19 1016.85 1016.63 1016.34 1015.94 1015.58 1015.33 1015.12 1014.93 1014.77 1014.72 1014.63 1014.47 1014.22 1013.05 1010.15 1010.40 1009.90 1010.07 1009.74 1010.25 1010.51 1010.13 1009.94 1009.38 1009.22 1009.55 1009.24 1008.73 1008.05 1007.09 1006.00 1005.99 1005.23 1004.89 1004.36 1003.84 1003.80 1003.48 1003.76 1004.34
1018.56 1018.07 1017.64 1017.40 1017.04 1016.69 1016.39 1016.15 1015.79 1015.48 1015.13 1014.80 1014.67 1014.53 1014.50 1014.43 1014.20 1012.75 1007.75 1008.57 1008.96 1009.52 1010.32 1010.04 1009.93 1010.45 1010.43 1009.79 1009.33 1009.00 1008.40 1007.74 1007.82 1007.45 1006.90 1005.67 1005.98 1005.80 1005.41 1004.94 1004.36 1004.11 1004.15 1004.44 1004.65
1018.31 1017.89 1017.52 1017.12 1016.90 1016.61 1016.25 1015.90 1015.57 1015.20 1014.86 1014.58 1014.32 1014.32 1014.34 1014.29 1013.27 1008.77 1006.05 1007.03 1008.07 1009.14 1009.59 1009.67 1009.70 1009.95 1010.21 1009.71 1009.08 1008.47 1007.48 1007.72 1007.33 1007.10 1007.01 1006.30 1005.93 1006.31 1005.90 1005.70 1005.02 1004.61 1004.50 1004.88 1005.27
1018.04 1017.63 1017.16 1016.87 1016.56 1016.20 1015.99 1015.67 1015.29 1014.94 1014.57 1014.22 1014.16 1014.11 1014.17 1014.12 1011.39 1006.40 1005.71 1005.91 1007.43 1008.66 1009.56 1009.32 1009.57 1009.90 1010.02 1009.62 1008.84 1008.41 1007.71 1007.54 1007.68 1007.51 1007.51 1006.87 1006.35 1006.17 1006.07 1005.63 1005.16 1004.95 1004.46 1004.55 1005.26
1018.03 1017.52 1016.99 1016.58 1016.13 1015.88 1015.44 1015.13 1014.89 1014.60 1014.34 1013.99 1013.92 1013.98 1014.04 1013.55 1009.68 1006.34 1005.69 1005.22 1007.44 1008.45 1008.95 1009.10 1009.31 1009.38 1009.67 1009.29 1008.77 1008.29 1007.79 1007.49 1007.69 1007.22 1007.14 1007.16 1005.89 1005.91 1005.45 1005.09 1005.26 1005.26 1005.21 1004.83 1005.01
1017.81 1017.35 1016.78 1016.32 1015.81 1015.39 1015.02 1014.55 1014.25 1014.16 1013.86 1013.52 1013.53 1013.76 1013.80 1011.99 1006.58 1006.08 1005.94 1006.35 1006.84 1007.75 1008.41 1008.72 1008.62 1008.62 1009.10 1008.78 1008.63 1007.87 1007.93 1007.37 1007.59 1007.54 1007.49 1006.99 1006.12 1006.32 1004.32 1004.36 1005.02 1004.99 1005.04 1005.35 1005.34
1017.44 1016.90 1016.40 1015.92 1015.43 1014.99 1014.50 1014.13 1013.73 1013.58 1013.41 1013.09 1013.16 1013.39 1012.97 1008.92 1006.31 1006.62 1006.51 1006.28 1006.64 1006.71 1007.44 1007.84 1008.09 1008.48 1008.30 1008.16 1007.83 1007.97 1007.94 1007.68 1007.78 1007.21 1007.00 1007.09 1006.67 1006.22 1005.41 1005.55 1004.95 1004.29 1004.89 1005.11 1005.23
1017.09 1016.45 1015.84 1015.39 1014.87 1014.45 1014.01 1013.57 1013.16 1012.89 1012.87 1012.85 1012.91 1013.04 1011.23 1006.98 1006.43 1006.49 1006.53 1006.40 1006.87 1006.81 1007.12 1007.68 1008.01 1008.27 1007.95 1007.42 1007.45 1008.16 1008.33 1007.75 1006.82 1006.70 1006.40 1006.80 1005.57 1005.41 1005.18 1005.35 1005.21 1004.89 1004.76 1004.87 1005.08
1016.65 1016.21 1015.60 1015.01 1014.52 1014.05 1013.54 1012.97 1012.47 1011.99 1012.30 1012.73 1012.98 1012.67 1009.24 1006.30 1006.18 1005.09 1005.96 1006.07 1006.75 1007.31 1007.76 1007.65 1008.09 1008.11 1007.89 1007.80 1007.95 1008.07 1007.96 1007.37 1006.25 1005.38 1005.01 1005.56 1005.25 1004.69 1004.23 1004.66 1004.84 1005.00 1004.95 1005.21 1005.28
1016.31 1015.75 1015.14 1014.57 1014.15 1013.66 1013.28 1012.59 1012.06 1011.68 1012.42 1012.67 1012.24 1012.28 1007.90 1005.36 1004.53 1004.25 1005.03 1005.82 1006.39 1007.19 1007.91 1007.81 1008.04 1008.07 1007.96 1008.03 1008.19 1008.06 1007.41 1006.74 1005.91 1005.08 1004.67 1004.78 1004.79 1004.22 1004.20 1004.42 1004.49 1004.64 1004.77 1004.94 1005.01
1015.98 1015.39 1014.66 1014.08 1013.59 1013.31 1013.02 1012.72 1012.30 1012.02 1011.72 1009.81 1008.44 1007.83 1005.93 1004.50 1003.36 1003.70 1004.17 1005.35 1005.73 1006.22 1006.95 1006.99 1007.40 1007.57 1007.27 1007.11 1007.19 1007.28 1007.01 1006.78 1005.96 1004.96 1004.87 1004.65 1004.66 1004.26 1003.70 1003.85 1004.00 1004.34 1004.59 1004.65 1004.66
1015.72 1014.97 1014.17 1013.62 1012.99 1012.43 1012.57 1012.14 1009.94 1009.27 1009.10 1007.62 1007.26 1006.39 1005.20 1005.07 1004.45 1003.44 1003.64 1004.90 1005.45 1005.98 1006.11 1006.64 1006.50 1006.26 1006.23 1006.55 1006.84 1006.94 1006.71 1006.14 1005.31 1004.63 1004.79 1004.73 1004.93 1004.20 1003.68 1003.52 1003.29 1003.68 1004.25 1004.38 1004.46
1015.36 1014.64 1013.98 1013.05 1012.32 1012.05 1011.82 1010.47 1008.69 1008.75 1008.60 1006.16 1005.73 1005.11 1004.14 1004.44 1003.96 1003.22 1003.46 1003.99 1004.67 1005.47 1005.90 1006.22 1005.79 1005.55 1005.85 1006.04 1006.40 1006.35 1006.44 1006.02 1005.82 1005.17 1005.06 1005.25 1005.18 1004.55 1003.65 1003.33 1003.24 1003.61 1003.74 1003.99 1004.20
1014.81 1014.38 1013.67 1012.71 1012.10 1011.81 1010.62 1008.92 1008.52 1008.90 1008.22 1005.45 1004.45 1003.14 1003.10 1003.17 1003.17 1002.40 1002.83 1003.64 1004.36 1005.13 1005.74 1005.95 1005.29 1005.15 1005.41 1005.64 1005.87 1005.87 1005.59 1005.69 1005.77 1006.25 1006.50 1006.02 1006.27 1005.69 1004.65 1004.15 1003.62 1003.71 1004.15 1004.28 1004.30
1014.05 1013.89 1013.55 1013.53 1012.90 1012.18 1008.48 1008.56 1008.40 1008.39 1007.13 1004.08 1003.09 1002.09 1002.29 1002.68 1002.70 1002.40 1002.47 1003.16 1004.04 1004.75 1005.64 1005.52 1005.06 1004.91 1004.95 1004.94 1005.26 1005.10 1004.74 1005.43 1005.98 1006.48 1007.04 1007.12 1007.25 1005.85 1005.27 1004.71 1004.24 1004.16 1004.16 1004.27 1004.12
1013.48 1012.79 1012.72 1012.48 1012.22 1009.45 1008.80 1007.98 1008.31 1008.40 1005.39 1003.21 1002.44 1002.24 1002.67 1002.52 1002.63 1002.56 1002.69 1003.05 1003.75 1004.62 1005.03 1005.12 1004.62 1004.57 1004.43 1004.34 1004.66 1004.70 1005.32 1006.40 1007.20 1007.75 1008.15 1007.68 1007.57 1006.91 1005.79 1005.08 1004.73 1004.29 1004.34 1004.16 1004.05
1012.71 1011.72 1011.70 1011.61 1010.09 1008.58 1008.95 1008.33 1008.34 1006.92 1003.58 1002.76 1002.42 1002.38 1002.51 1002.70 1002.68 1002.80 1003.22 1003.70 1004.23 1004.87 1005.25 1005.10 1004.81 1004.40 1004.21 1004.57 1004.96 1005.30 1006.28 1008.19 1008.93 1009.37 1009.11 1008.36 1008.03 1006.85 1005.83 1005.28 1004.94 1004.69 1004.86 1004.57 1004.58
1011.60 1010.36 1009.18 1008.50 1008.23 1009.14 1008.79 1008.80 1007.32 1004.31 1002.81 1001.53 1001.73 1002.49 1002.81 1002.76 1002.94 1003.04 1003.57 1004.17 1004.44 1004.81 1005.45 1005.52 1005.33 1004.64 1004.55 1004.97 1005.58 1006.14 1007.03 1008.47 1009.71 1010.48 1010.01 1008.86 1007.93 1006.79 1006.25 1005.47 1005.16 1005.22 1005.27 1005.38 1005.28
1010.94 1009.67 1008.89 1006.46 1007.59 1008.07 1008.53 1008.07 1005.36 1003.52 1002.12 1001.66 1001.58 1002.50 1003.05 1002.98 1003.09 1003.39 1003.86 1004.10 1004.29 1004.71 1005.63 1005.78 1005.45 1005.08 1004.89 1005.03 1005.47 1006.30 1007.50 1008.30 1009.88 1011.24 1010.92 1009.89 1008.25 1007.09 1006.44 1006.16 1006.06 1006.11 1006.09 1006.27 1006.18
1011.45 1010.42 1007.72 1005.74 1006.59 1007.58 1007.80 1006.57 1004.69 1002.62 1001.78 1001.76 1001.97 1002.37 1002.97 1003.43 1003.66 1003.92 1004.17 1004.17 1004.48 1004.66 1004.88 1005.71 1005.99 1005.89 1005.55 1005.41 1005.67 1006.09 1007.28 1008.90 1010.56 1011.94 1011.90 1010.62 1009.16 1007.72 1007.21 1007.09 1006.97 1006.98 1006.95 1006.79 1006.96
1011.45 1009.96 1006.25 1006.05 1006.08 1007.10 1006.96 1005.76 1004.03 1002.33 1001.70 1001.84 1002.19 1002.71 1003.37 1003.68 1004.23 1004.66 1004.85 1004.63 1004.57 1005.10 1005.26 1006.09 1006.79 1007.08 1006.49 1006.69 1006.63 1007.29 1008.26 1009.66 1010.85 1011.80 1012.02 1011.34 1009.51 1007.84 1007.67 1007.63 1007.80 1008.11 1008.02 1008.18 1008.19
1012.05 1010.21 1006.93 1007.10 1007.26 1007.17 1006.41 1005.10 1003.70 1002.45 1001.78 1001.66 1002.08 1002.75 1003.59 1004.22 1004.73 1005.08 1005.35 1005.38 1005.71 1005.52 1006.37 1007.07 1007.75 1008.26 1008.04 1007.86 1007.70 1008.11 1009.03 1010.10 1011.15 1012.26 1012.34 1011.82 1009.94 1008.51 1008.43 1008.45 1008.49 1009.13 1009.12 1009.11 1009.40
1012.27 1010.44 1006.75 1006.74 1007.78 1007.45 1006.11 1004.95 1003.96 1003.16 1002.57 1002.50 1002.77 1003.32 1003.89 1004.95 1005.72 1005.81 1006.01 1006.29 1006.25 1006.68 1007.34 1007.77 1008.82 1009.48 1009.34 1009.21 1008.89 1009.15 1009.59 1010.43 1011.15 1011.82 1011.96 1011.80 1010.39 1009.15 1009.03 1009.20 1009.51 1009.88 1010.28 1010.39 1009.90
1013.04 1011.07 1008.36 1007.46 1007.48 1007.56 1006.86 1005.39 1004.46 1003.89 1003.80 1003.94 1004.20 1003.82 1004.87 1005.87 1006.27 1006.75 1007.12 1007.31 1007.16 1007.57 1008.04 1008.27 1009.61 1010.08 1010.20 1010.01 1010.05 1010.15 1010.27 1010.57 1011.30 1012.17 1011.84 1011.05 1010.75 1009.83 1009.47 1009.87 1010.07 1010.53 1010.69 1010.73 1010.98
1012.98 1011.46 1010.37 1009.53 1008.49 1008.20 1007.63 1006.38 1005.31 1004.74 1004.61 1005.19 1005.55 1005.13 1005.61 1006.73 1007.29 1007.92 1008.18 1008.27 1008.53 1008.84 1009.15 1009.73 1010.90 1011.19 1011.21 1010.91 1010.61 1010.50 1010.60 1010.72 1011.06 1011.32 1011.50 1011.10 1010.86 1010.27 1010.22 1010.28 1010.68 1010.83 1010.89 1011.17 1011.18
1012.95 1011.95 1011.03 1010.31 1009.54 1008.85 1008.13 1006.95 1006.38 1005.86 1005.72 1005.61 1006.16 1006.47 1006.32 1007.15 1007.70 1008.57 1008.84 1009.24 1009.56 1010.03 1010.67 1011.24 1012.06 1012.14 1012.08 1011.60 1011.28 1010.78 1010.28 1010.31 1010.49 1010.52 1010.64 1010.73 1010.52 1010.27 1010.41 1010.65 1011.09 1011.22 1011.37 1011.47 1011.38
1012.80 1012.02 1011.70 1010.62 1009.92 1009.20 1008.82 1007.95 1006.71 1006.36 1006.54 1006.27 1006.56 1006.80 1007.29 1008.01 1008.39 1008.79 1009.10 1009.63 1010.07 1010.70 1011.57 1012.19 1012.78 1013.34 1013.25 1012.69 1011.83 1010.83 1009.62 1009.39 1009.62 1010.07 1010.07 1010.38 1010.57 1010.76 1011.13 1011.31 1011.31 1011.40 1011.59 1011.64 1011.40
Wind_Speed
16 17 16 15 14 14 14 14 13 14 13 12 12 11 11 13 13 12 19 16 16 26 7 3 6 6 1 3 4 4 4 5 6 6 6 6 6 9 4 6 3 6 6 6 11
17 16 16 16 16 15 14 13 13 14 14 12 11 9 10 11 11 14 23 18 24 12 7 3 11 7 3 5 4 5 7 12 6 0 5 9 5 6 6 9 7 5 7 8 14
16 16 16 16 17 15 15 15 15 15 13 12 10 8 7 8 5 13 7 28 25 17 5 7 3 7 5 4 6 4 13 13 3 6 4 10 17 2 5 2 4 4 6 3 6
16 16 16 16 16 16 16 17 17 17 16 13 10 6 4 3 6 2 5 17 25 15 6 4 4 8 5 7 6 5 4 6 13 19 11 5 9 14 10 7 6 5 6 4 9
17 17 18 18 17 16 16 16 18 18 17 14 9 4 1 3 16 7 9 16 18 14 11 7 6 7 7 7 2 5 2 11 10 9 12 15 23 18 16 9 6 5 3 6 6
17 18 18 18 18 18 16 15 15 16 17 15 8 5 3 6 6 1 11 17 14 11 8 7 9 7 6 4 10 5 8 6 7 12 18 24 15 3 26 21 16 8 5 5 6
17 17 18 18 19 19 17 16 15 17 15 8 9 6 4 19 2 6 5 5 14 8 9 5 4 7 5 4 8 12 4 7 14 13 12 10 12 17 23 12 18 18 6 8 9
20 18 21 21 21 20 20 20 20 18 15 6 10 5 11 7 6 4 5 4 3 3 3 5 4 1 3 3 3 8 4 5 9 12 14 14 19 18 18 18 19 11 9 5 8
21 19 22 22 21 20 19 22 22 8 5 10 6 3 12 5 5 7 9 5 8 2 2 4 6 6 2 3 4 3 5 5 8 12 10 18 8 12 11 11 11 10 9 9 8
20 22 21 23 22 20 18 19 9 6 6 6 3 3 8 4 4 6 10 9 6 9 4 6 5 5 2 4 5 5 3 4 6 4 5 4 7 10 9 9 12 11 9 9 9
23 21 21 23 22 18 10 5 2 1 4 11 10 6 7 7 3 5 7 9 3 4 7 6 4 5 8 8 6 3 3 5 5 6 1 6 5 15 12 8 9 9 9 9 10
24 24 24 23 24 22 3 4 6 2 7 18 12 9 10 4 5 6 9 7 7 6 3 5 7 10 6 6 5 5 3 7 6 5 5 4 6 7 4 7 12 12 8 9 6
22 23 25 25 27 0 4 9 3 3 3 6 8 6 6 8 6 7 9 6 4 4 4 6 5 4 5 4 4 5 5 6 7 3 1 2 5 5 5 3 4 3 4 5 9
23 24 23 23 4 3 5 4 8 5 3 6 4 7 6 7 5 6 7 6 1 8 5 5 7 4 3 6 7 6 7 11 9 5 4 2 5 4 5 6 3 4 6 9 10
23 24 19 9 11 6 3 2 3 2 2 4 3 1 4 9 2 4 5 4 7 5 6 6 1 2 2 6 6 10 9 13 7 3 5 2 4 8 2 3 5 8 7 8 11
25 23 21 6 4 12 13 7 2 4 7 3 5 6 5 4 1 3 4 4 2 4 2 6 2 2 5 4 1 6 4 7 5 4 1 4 6 6 3 2 5 4 7 7 8
27 28 17 7 7 3 5 2 4 4 1 6 5 5 6 6 4 5 6 7 6 3 2 2 2 2 1 1 7 8 7 3 3 2 6 3 3 8 3 2 6 3 7 4 6
31 30 6 8 10 10 1 5 4 6 5 3 6 5 5 5 5 6 6 4 2 3 3 5 2 5 0 3 3 2 5 7 7 4 4 4 4 4 2 5 7 6 5 7 6
28 4 5 5 12 3 5 3 8 6 3 2 3 5 4 2 4 5 7 7 6 6 7 5 2 5 4 3 4 1 3 3 7 3 4 3 5 2 4 8 9 8 8 6 6
9 6 5 3 14 4 4 6 5 5 0 2 3 1 3 5 3 3 6 2 4 6 4 5 2 2 2 1 3 3 3 2 4 5 4 4 3 5 2 5 3 6 6 6 7
2 5 4 6 3 4 4 7 6 9 4 4 5 3 3 4 5 1 1 3 6 4 5 4 4 3 2 1 2 4 2 5 5 4 5 4 6 4 5 5 7 8 7 7 8
4 4 2 4 2 2 3 5 5 8 9 3 3 4 4 3 3 3 4 2 2 4 4 2 5 3 3 5 1 4 2 4 6 4 3 4 7 4 5 6 9 7 6 7 8
5 5 5 5 3 4 6 6 6 3 4 3 2 2 3 4 6 4 5 4 3 4 4 3 2 2 3 5 6 4 3 5 5 3 4 2 4 5 6 8 7 7 5 4 8
4 4 5 3 0 3 6 5 4 1 2 6 6 4 5 4 6 4 4 6 5 5 12 6 3 3 5 3 3 2 2 3 7 2 2 8 3 11 6 6 7 7 4 5 4
2 3 2 4 4 7 5 5 5 2 5 3 5 3 5 4 3 4 3 4 7 9 6 5 3 2 1 2 2 4 5 7 7 6 9 6 9 10 5 2 4 4 4 5 5
3 3 4 4 5 5 3 4 3 2 4 2 5 1 5 5 2 5 6 2 2 6 4 4 3 2 3 3 3 3 8 7 8 11 12 11 9 3 4 4 4 4 2 5 7
3 3 1 4 4 3 3 6 6 5 6 5 6 5 8 4 3 5 4 4 7 6 3 3 5 3 3 5 6 6 6 8 2 4 5 8 4 2 1 5 4 3 2 6 8
Wind_Direction
336 335 333 331 330 329 330 328 330 327 324 305 306 304 300 295 290 273 247 222 201 240 282 318 167 240 211 251 213 213 109 198 201 179 265 230 54 331 330 343 321 308 141 171 135
333 331 329 328 327 327 325 321 319 320 319 315 296 300 305 305 285 245 238 214 211 207 206 229 176 164 218 201 229 190 185 221 195 307 304 322 44 358 355 4 3 15 18 51 140
330 328 329 327 327 325 323 319 314 310 313 312 297 299 309 309 305 247 267 211 208 199 232 180 143 137 192 190 208 223 211 219 194 287 235 318 304 14 323 120 317 358 308 117 119
326 325 324 323 323 324 324 320 314 311 310 310 296 288 305 307 270 259 177 194 193 182 206 149 159 152 179 207 218 178 202 155 218 254 269 266 306 292 282 282 219 212 230 309 132
323 321 321 321 320 321 319 318 314 312 307 301 284 253 49 237 252 273 287 190 163 160 188 160 152 135 187 192 116 193 164 189 233 245 284 299 274 263 274 252 218 214 237 215 242
317 316 316 316 316 317 313 311 308 307 306 293 239 185 174 261 239 236 119 131 155 151 154 158 174 180 180 206 182 200 202 205 244 223 234 243 254 42 277 286 272 220 202 197 248
314 312 309 310 313 316 312 309 307 307 302 291 192 184 229 242 148 26 154 156 160 168 162 193 181 192 159 177 211 228 165 225 231 230 238 231 258 232 243 266 267 273 205 226 222
319 311 314 312 313 315 316 316 311 307 293 208 177 189 251 246 245 206 241 127 162 179 80 188 160 248 246 282 88 157 152 222 234 216 232 174 241 241 233 224 233 245 273 249 251
315 312 317 315 313 313 317 317 308 303 171 168 149 182 264 298 247 193 172 171 150 208 235 260 126 219 261 149 20 354 176 181 272 201 204 184 210 226 222 204 224 234 245 244 228
316 318 317 315 313 315 315 312 280 89 153 174 224 308 261 216 204 191 179 161 167 159 180 195 198 185 81 101 200 214 197 206 212 236 200 151 246 252 242 207 223 224 232 242 234
322 321 317 316 313 310 321 349 115 75 228 205 184 238 280 341 183 200 150 162 264 160 173 185 148 197 206 181 190 236 224 232 237 239 259 248 268 266 265 211 214 223 233 239 230
324 319 318 316 315 315 197 211 231 162 287 226 243 249 273 341 294 272 132 155 145 203 132 38 211 216 200 175 202 222 248 276 283 265 157 241 239 260 276 228 208 211 226 233 231
315 317 322 321 315 98 205 232 250 33 246 276 191 206 210 159 222 250 144 158 145 137 167 171 236 167 168 224 206 231 195 253 216 331 210 219 309 326 311 272 179 255 239 254 229
322 321 323 329 323 322 245 230 241 173 24 264 220 253 171 183 241 201 165 143 109 184 171 227 284 220 213 237 182 256 206 238 253 131 218 112 264 284 299 313 343 267 276 266 253
320 320 319 326 293 272 210 52 126 90 333 171 169 129 142 151 146 219 160 114 173 185 116 235 219 81 237 207 161 228 215 205 208 178 122 334 86 270 314 293 286 296 276 246 245
317 314 317 310 222 240 310 334 96 38 253 210 147 168 138 175 175 158 119 84 154 158 201 218 245 220 215 272 206 273 105 52 48 95 195 220 136 287 241 274 292 279 267 277 322
316 309 302 241 223 119 274 21 64 199 245 180 193 159 175 171 185 171 159 156 169 148 234 283 211 265 237 54 358 50 59 1 331 359 213 281 99 228 280 325 247 284 328 353 82
316 307 242 192 217 268 6 54 205 230 230 245 150 123 181 161 220 179 135 174 208 143 122 178 225 166 55 122 190 17 134 151 202 199 230 315 228 212 8 33 42 70 59 23 69
320 308 266 238 181 163 97 187 216 217 264 306 111 136 218 165 139 131 185 198 195 165 159 162 257 77 99 167 131 218 58 175 105 12 70 258 292 2 34 38 40 44 50 30 37
323 318 263 158 154 118 104 240 249 232 247 333 152 192 161 195 111 118 158 0 156 186 161 199 129 30 110 284 26 124 150 69 15 144 203 287 265 219 68 62 43 22 8 16 28
14 331 293 156 148 66 194 232 276 286 250 169 200 114 148 133 126 196 58 31 28 13 125 107 111 273 85 87 141 21 44 70 107 132 162 166 257 215 138 20 355 21 12 44 56
352 330 37 344 59 221 201 207 265 289 300 195 122 116 136 127 120 122 119 124 272 351 48 16 124 150 211 308 286 90 119 118 134 203 162 158 262 68 49 33 84 47 43 47 59
310 272 298 121 254 269 283 289 288 303 320 347 114 165 81 118 108 107 99 18 73 88 157 165 41 95 22 349 10 101 120 118 102 80 191 209 269 166 80 62 45 55 37 51 54
301 324 312 22 47 358 331 278 284 224 57 12 344 84 84 66 17 113 94 14 17 75 56 84 90 146 187 153 166 156 90 146 120 188 225 229 259 292 347 59 30 22 71 36 19
235 286 331 326 338 335 314 296 309 287 119 110 328 31 139 112 79 86 57 28 32 354 41 81 112 81 7 288 274 205 211 218 211 184 199 201 211 248 171 111 59 339 22 7 348
300 339 343 290 286 273 304 289 254 265 333 61 144 70 78 103 148 160 130 120 148 17 62 359 135 81 315 326 39 275 270 253 231 230 226 228 244 136 117 64 6 340 8 342 320
315 312 266 281 328 16 320 290 273 146 6 54 124 89 70 106 117 146 119 138 157 132 116 92 125 99 260 351 325 287 241 228 134 38 232 220 181 90 39 321 304 260 316 299 303